Weather History for Boise, ID

Change the Weather History Date:

Thursday, September 6, 2012

  Actual Average Record
Temperature  
Mean Temperature 72 °F 68 °F  
Max Temperature 85 °F 83 °F 98 °F (1955)
Min Temperature 58 °F 54 °F 32 °F (1886)
Degree Days  
Heating Degree Days 0 2  
Month to date heating degree days 0 7  
Since 1 July heating degree days 0 25  
Cooling Degree Days 7 5  
Month to date cooling degree days 36 33  
Year to date cooling degree days 1175 867  
Growing Degree Days 20 (Base 50)    
Moisture  
Dew Point 35 °F    
Average Humidity 31    
Maximum Humidity 46    
Minimum Humidity 15    
Precipitation  
Precipitation 0.00 in 0.02 in 0.43 in (1978)
Month to date precipitation 0.00 0.09  
Year to date precipitation 8.86 7.59  
Snow  
Snow 0.00 in 0.00 in 0.00 in (2006)
Month to date snowfall 0.0 0.0  
Since 1 July snowfall 0.0 0.0  
Snow Depth 0.00 in    
Sea Level Pressure  
Sea Level Pressure 29.93 in    
Wind  
Wind Speed 4 mph (ESE)    
Max Wind Speed 9 mph    
Max Gust Speed 13 mph    
Visibility 10 miles    
Events      
T = Trace of Precipitation, MM = Missing Value Source: NWS Daily Summary

Daily Weather History Graph

Daily Weather History Graph

Search for Another Location

Airport:

Trip Planner

Search our weather history database for the weather conditions in past years. The results will help you decide how hot, cold, wet, or windy it might be!

Date:

Astronomy

Sep. 06, 2012 Rise Set
Actual Time 7:14 AM MDT 8:10 PM MDT
Civil Twilight 6:45 AM MDT 8:39 PM MDT
Nautical Twilight 6:10 AM MDT 9:14 PM MDT
Astronomical Twilight 5:34 AM MDT 9:50 PM MDT
Moon 11:11 PM MDT (9/6) 1:30 PM MDT (9/6)
Length of Visible Light 13h 53m
Length of Day
12h 55m
Waning Gibbous, 67% of the Moon is Illuminated
Sep 6
Waning Gibbous
Sep 8
Last Quarter
Sep 15
New
Sep 22
First Quarter
Sep 29
Full

Hourly Weather History & Observations

Time (MDT) Temp. Dew Point Humidity Pressure Visibility Wind Dir Wind Speed Gust Speed Precip Events Conditions
12:53 AM 69.1 °F 32.0 °F 25% 29.80 in 10.0 mi SE 6.9 mph - N/A   Clear
1:53 AM 66.9 °F 32.0 °F 27% 29.81 in 10.0 mi SE 5.8 mph - N/A   Clear
2:53 AM 64.0 °F 30.9 °F 29% 29.82 in 10.0 mi SSE 3.5 mph - N/A   Clear
3:53 AM 60.1 °F 39.0 °F 46% 29.84 in 10.0 mi Calm Calm - N/A   Clear
4:53 AM 61.0 °F 36.0 °F 39% 29.85 in 10.0 mi SE 3.5 mph - N/A   Clear
5:53 AM 59.0 °F 34.0 °F 39% 29.84 in 10.0 mi South 3.5 mph - N/A   Clear
6:53 AM 61.0 °F 37.9 °F 42% 29.88 in 10.0 mi Calm Calm - N/A   Clear
7:53 AM 60.1 °F 36.0 °F 41% 29.91 in 10.0 mi SE 6.9 mph - N/A   Clear
8:53 AM 63.0 °F 39.0 °F 41% 29.94 in 10.0 mi Calm Calm - N/A   Clear
9:53 AM 64.9 °F 37.9 °F 37% 29.97 in 10.0 mi Calm Calm - N/A   Clear
10:53 AM 69.1 °F 39.9 °F 35% 29.99 in 8.0 mi West 3.5 mph - N/A   Clear
11:53 AM 71.1 °F 37.9 °F 30% 29.99 in 9.0 mi SSE 4.6 mph - N/A   Partly Cloudy
12:53 PM 73.9 °F 33.1 °F 22% 29.98 in 10.0 mi East 4.6 mph - N/A   Clear
1:53 PM 75.0 °F 33.1 °F 22% 29.97 in 10.0 mi East 4.6 mph - N/A   Clear
2:53 PM 77.0 °F 32.0 °F 19% 29.97 in 10.0 mi Calm Calm - N/A   Clear
3:53 PM 79.0 °F 37.0 °F 22% 29.96 in 10.0 mi NE 5.8 mph - N/A   Clear
4:53 PM 82.9 °F 36.0 °F 19% 29.94 in 10.0 mi North 5.8 mph - N/A   Clear
5:53 PM 84.0 °F 32.0 °F 15% 29.93 in 10.0 mi North 8.1 mph - N/A   Clear
6:53 PM 82.0 °F 32.0 °F 16% 29.93 in 10.0 mi NW 5.8 mph - N/A   Clear
7:53 PM 78.1 °F 35.1 °F 21% 29.94 in 10.0 mi WSW 3.5 mph - N/A   Clear
8:53 PM 72.0 °F 36.0 °F 27% 29.95 in 10.0 mi Calm Calm - N/A   Clear
9:53 PM 69.1 °F 35.1 °F 29% 29.98 in 10.0 mi SE 4.6 mph - N/A   Clear
10:53 PM 68.0 °F 37.0 °F 32% 29.99 in 10.0 mi SE 4.6 mph - N/A   Clear
11:53 PM 66.0 °F 34.0 °F 30% 30.00 in 10.0 mi SE 9.2 mph - N/A   Clear